Regional Weather Roundup
Issued by NWS

Home | Current Version | Previous Version | Text Only | Print | Product List | Glossary On
Versions: 1 2 3 4 5 6 7 8 9 10 11 12 13 14 15 16 17 18 19 20 21 22 23 24 25 26 27 28 29 30 31 32 33 34 35 36 37 38 39 40 41 42 43 44 45 46 47 48 49 50
000
ASUS43 KMKX 301611
RWRWI

WISCONSIN REGIONAL WEATHER ROUNDUP
NATIONAL WEATHER SERVICE MILWAUKEE/SULLIVAN WI
1100 AM CDT TUE JUN 30 2015

NOTE: "FAIR" INDICATES FEW OR NO CLOUDS BELOW 12,000 FEET WITH NO
SIGNIFICANT WEATHER AND/OR OBSTRUCTIONS TO VISIBILITY.

WIZ001-002-006>008-014>016-023>028-301700-
NORTHWEST WISCONSIN

CITY           SKY/WX    TMP DP  RH WIND       PRES   REMARKS
SUPERIOR ARPT  CLOUDY    59  47  63 E9        29.99S
ASHLAND        CLOUDY    55  50  83 NE10      29.99S
HAYWARD        CLOUDY    58  52  80 NE12      29.98R
SIREN          CLOUDY    62  55  77 E5        29.98R
CUMBERLAND     CLOUDY    61  54  77 NE6       29.96S
RICE LAKE      CLOUDY    64  55  73 N8        29.97S
CHETEK         CLOUDY    64  57  76 N7        29.95S
LADYSMITH      CLOUDY    64  54  71 N12       29.96S
EAU CLAIRE     PTSUNNY   66  56  70 NE8       29.92S
MENOMONIE      CLOUDY    65  58  78 NE9G17    29.94R
NEW RICHMOND   PTSUNNY   66  59  76 NE7       29.95S
OSCEOLA        PTSUNNY   67  59  74 NE8       29.97S
$$

WIZ003>005-009-010-017-018-301700-
NORTH CENTRAL WISCONSIN

CITY           SKY/WX    TMP DP  RH WIND       PRES   REMARKS
MANITOWISH WTR CLOUDY    54  50  88 N8G16     29.95R
ARBOR VITAE    CLOUDY    57  52  82 N10       29.94R
WOODRUFF       CLOUDY    57  52  82 N10       29.94R
RHINELANDER    CLOUDY    58  50  75 VRB6G17   29.93R
EAGLE RIVER    CLOUDY    54  50  87 N13G18    29.93R
LAND O LAKES   CLOUDY    52  49  90 N12       29.95R
PHILLIPS       CLOUDY    57  51  79 N7        29.94S
TOMAHAWK       CLOUDY    58  50  74 NW10G16   29.93R
MEDFORD        CLOUDY    63  54  71 N13       29.92S
MERRILL        CLOUDY    64  55  72 N10       29.91R
$$

WIZ029-030-035-036-043>047-301700-
CENTRAL WISCONSIN

CITY           SKY/WX    TMP DP  RH WIND       PRES   REMARKS
WAUSAU         CLOUDY    66  53  63 N12       29.87S
MOSINEE        NOT AVBL
MARSHFIELD     PTSUNNY   67  54  63 N14       29.90S
STEVENS POINT  PTSUNNY   65  54  68 N10       29.88S
WAUPACA        MOSUNNY   69  58  65 NW9       29.86S
WAUTOMA        PTSUNNY   69  58  68 VRB7      29.87S
WISC RAPIDS    PTSUNNY   68  56  65 N9        29.89S
CAMP DOUGLAS   PTSUNNY   68  68 100 NW7       29.89R
$$

WIZ011>013-019>022-031-037>040-048>050-301700-
NORTHEAST WISCONSIN

CITY           SKY/WX    TMP DP  RH WIND       PRES   REMARKS
ANTIGO         CLOUDY    61  54  77 N13       29.90R
SHAWANO        CLOUDY    67  56  70 N9        29.86S
OCONTO         PTSUNNY   62  55  77 N12       29.84R
STURGEON BAY   CLOUDY    57  54  88 N13       29.86S
GREEN BAY      CLOUDY    68  58  70 N13       29.84R
MANITOWOC      CLOUDY    67  62  84 MISG      29.81R
APPLETON       CLOUDY    64  55  72 N13       29.85S
CLINTONVILLE   CLOUDY    66  54  63 N10       29.85S
OSHKOSH        CLOUDY    68  58  70 N14       29.84R
$$

WIZ032>034-041-042-053>061-301700-
SOUTHWEST WISCONSIN

CITY           SKY/WX    TMP DP  RH WIND       PRES   REMARKS
LA CROSSE      CLOUDY    65  59  81 NW8       29.91R
SPARTA         CLOUDY    66  58  74 N5        29.91R
VIROQUA        CLOUDY    64  62  94 N10       29.91S
BOSCOBEL       CLOUDY    68  60  75 N6        29.89F
PRAIRIE DU CHI CLOUDY    68  60  74 N6        29.89R
PLATTEVILLE    PTSUNNY   69  63  83 N12       29.88S
$$

WIZ056-057-062-063-064-067-068-301700-
SOUTH CENTRAL WISCONSIN

CITY           SKY/WX    TMP DP  RH WIND       PRES   REMARKS
REEDSBURG      CLOUDY    67  60  79 N5        29.87S
BARABOO/DELLS  CLOUDY    67  59  75 NW7       29.87S
LONE ROCK      CLOUDY    66  60  81 W3        29.90R
MINERAL POINT  CLOUDY    64  61  88 N7        29.89S
MADISON        PTSUNNY   67  59  75 VRB5      29.86S
MIDDLETON      CLOUDY    67  61  80 N9        29.88S
WATERTOWN      CLOUDY    65  64  94 NW10      29.84S
MONROE         CLOUDY    64  61  88 N3        29.88R
JANESVILLE     CLOUDY    68  61  77 NW8       29.85S FOG
$$

WIZ051-052-058>065-066-070>072-301700-
SOUTHEAST WISCONSIN

CITY           SKY/WX    TMP DP  RH WIND       PRES   REMARKS
MILWAUKEE      PTSUNNY   71  59  65 NW14G20   29.81R
WAUKESHA       CLOUDY    66  61  82 NW13      29.84
MILWAUKEE/TIMM PTSUNNY   70  57  64 NW14      29.82R
RACINE         PTSUNNY   70  59  68 NW9       29.82S
BURLINGTON     CLOUDY    65  60  83 NW9       29.83S
KENOSHA        PTSUNNY   69  60  73 NW12      29.82S
FOND DU LAC    CLOUDY    68  59  73 NW12      29.84R
SHEBOYGAN      CLOUDY    69  59  70 N12G21    29.81R
WEST BEND      PTSUNNY   68  59  73 NW12      29.82S
JUNEAU         CLOUDY    66  60  81 NW6       29.86S
$$

LSZ147-162-301700-
LAKE SUPERIOR

STATION/POSITION TIME  TEMP    WIND        PRES    WAVE
                       AIR SEA DIR/SP/G            HT/PER
                 (UTC) (F)     (DEG/KT/KT) (MB)    (FT/S)
W MID LAKE BUOY  1550   43 38   30/ 10/ 10 1016.0R   1
DEVILS ISLAND    1600   53      70/ 12/ 15 1016.2R
SAXON HARBOR     1500   54      40/ 13/ 14 1014.9
$$

LMZ867-665-643>646-301700-
LAKE MICHIGAN

STATION/POSITION TIME  TEMP    WIND        PRES    WAVE
                       AIR SEA DIR/SP/G            HT/PER
                 (UTC) (F)     (DEG/KT/KT) (MB)    (FT/S)
CHAMBERS ISLAND  1500   57     320/ 16/ 19 1010.8R
N MID LAKE BUOY  1550   52 49  330/ 14/ 16 1010.1R   2/ 3
NORTHPORT PIER   1500   56     330/ 17/ 21 1010.5R
SISTER BAY       1514   56      10/ 17/ 23   N/A
ALGOMA LAKESHORE 1510           30/ 14/ 19   N/A
KEWAUNEE LAKESHO 1500   63      30/  5/  8 1008.8R
SHEBOYGAN LAKESH 1600   59      10/ 14/ 15 1009.7R
PORT WASHINGTON  1540   72     320/  7/ 14 1009.8R
ATWATER BUOY     1600   66 59  310/ 12/ 14 1010.7R
MILWAUKEE LAKESH 1500   68     330/  8/ 12   N/A
KENOSHA   LAKESH 1600   68     310/ 11/ 13 1009.5R
$$

TC  - TEMPERATURE IN CELSIUS
VSB - VISIBILITY IN STATUTE MILES
WCI - WIND CHILL INDEX
HX  - HEAT INDEX



USA.gov is the U.S. government's official web portal to all federal, state and local government web resources and services.